When you browse on this site, cookies collect data to enhance your experience and personalize the content and advertising you see.
Visit our Privacy Policy to learn more. By continuing to use the site, you agree to this use of cookies and data.
  • In Switzerland
  • List of Countries
  • For 7 days
  • Water Temperature
  • Weather Map
  • Weather Widgets
  • user-avatar
    Login

    Hourly Weather Durham

    Today, 5 June, Friday

    Time Temperature Precipitation Wind Pressure Humidity
    00:00 +8°C° 0 mm 3 mps 741 mmHg 94%
    01:00 +8°C° 0.5 mm 3 mps 741 mmHg 92%
    02:00 +6°C° 0.5 mm 4 mps 740 mmHg 91%
    03:00 +6°C° 0.5 mm 5 mps 740 mmHg 90%
    04:00 +6°C° 0.2 mm 5 mps 740 mmHg 88%
    05:00 +6°C° 0.2 mm 5 mps 740 mmHg 87%
    06:00 +6°C° 0.2 mm 5 mps 740 mmHg 86%
    07:00 +7°C° 0.1 mm 5 mps 740 mmHg 80%
    08:00 +8°C° 0.1 mm 6 mps 739 mmHg 74%
    09:00 +8°C° 0.1 mm 6 mps 739 mmHg 68%
    10:00 +9°C° 0.4 mm 6 mps 739 mmHg 67%
    11:00 +10°C° 0.4 mm 6 mps 739 mmHg 66%
    12:00 +10°C° 0.4 mm 6 mps 739 mmHg 65%
    13:00 +10°C° 0.5 mm 6 mps 739 mmHg 66%
    14:00 +10°C° 0.5 mm 6 mps 738 mmHg 67%
    15:00 +11°C° 0.5 mm 7 mps 738 mmHg 68%
    16:00 +10°C° 0.4 mm 7 mps 737 mmHg 69%
    17:00 +9°C° 0.4 mm 8 mps 737 mmHg 70%
    18:00 +9°C° 0.4 mm 8 mps 736 mmHg 71%
    19:00 +7°C° 0.2 mm 9 mps 736 mmHg 75%
    20:00 +6°C° 0.2 mm 10 mps 735 mmHg 78%
    21:00 +3°C° 0.2 mm 10 mps 735 mmHg 82%
    22:00 +5°C° 0.9 mm 10 mps 734 mmHg 84%
    23:00 +5°C° 0.9 mm 10 mps 734 mmHg 87%

    Tomorrow, 6 June, Saturday

    Time Temperature Precipitation Wind Pressure Humidity
    00:00 +6°C° 0.9 mm 9 mps 733 mmHg 90%
    01:00 +6°C° 0.3 mm 9 mps 733 mmHg 89%
    02:00 +6°C° 0.3 mm 8 mps 733 mmHg 89%
    03:00 +6°C° 0.3 mm 7 mps 732 mmHg 89%
    04:00 +6°C° 0.2 mm 9 mps 733 mmHg 88%
    05:00 +6°C° 0.2 mm 10 mps 733 mmHg 88%
    06:00 +6°C° 0.2 mm 11 mps 733 mmHg 88%
    07:00 +6°C° 0.4 mm 11 mps 734 mmHg 87%
    08:00 +7°C° 0.4 mm 10 mps 735 mmHg 87%
    09:00 +7°C° 0.4 mm 10 mps 736 mmHg 86%
    10:00 +8°C° 0.2 mm 10 mps 737 mmHg 81%
    11:00 +9°C° 0.2 mm 10 mps 737 mmHg 76%
    12:00 +11°C° 0.2 mm 9 mps 738 mmHg 71%
    13:00 +12°C° 0.2 mm 9 mps 739 mmHg 70%
    14:00 +12°C° 0.2 mm 8 mps 740 mmHg 70%
    15:00 +12°C° 0.2 mm 8 mps 741 mmHg 69%
    16:00 +12°C° 0 mm 7 mps 741 mmHg 68%
    17:00 +13°C° 0 mm 6 mps 742 mmHg 67%
    18:00 +13°C° 0 mm 5 mps 742 mmHg 66%
    19:00 +12°C° 0 mm 4 mps 743 mmHg 69%
    20:00 +11°C° 0 mm 3 mps 743 mmHg 73%
    21:00 +10°C° 0 mm 3 mps 743 mmHg 77%
    22:00 +9°C° 0.5 mm 2 mps 744 mmHg 82%
    23:00 +9°C° 0.5 mm 2 mps 744 mmHg 87%

    Day after tomorrow, 7 June, Sunday

    Time Temperature Precipitation Wind Pressure Humidity
    00:00 +9°C° 0.5 mm 2 mps 744 mmHg 92%
    01:00 +9°C° 0.5 mm 2 mps 744 mmHg 93%
    02:00 +10°C° 0.5 mm 2 mps 744 mmHg 94%
    03:00 +10°C° 0.5 mm 3 mps 745 mmHg 95%
    04:00 +10°C° 0.3 mm 4 mps 745 mmHg 94%
    05:00 +10°C° 0.3 mm 4 mps 746 mmHg 93%
    06:00 +9°C° 0.3 mm 5 mps 746 mmHg 93%
    07:00 +9°C° 0.3 mm 6 mps 747 mmHg 92%
    08:00 +9°C° 0.3 mm 7 mps 748 mmHg 92%
    09:00 +10°C° 0.3 mm 8 mps 748 mmHg 92%
    10:00 +10°C° 0.1 mm 8 mps 749 mmHg 90%
    11:00 +10°C° 0.1 mm 7 mps 750 mmHg 88%
    12:00 +10°C° 0.1 mm 7 mps 750 mmHg 86%
    13:00 +10°C° 0.1 mm 8 mps 751 mmHg 82%
    14:00 +11°C° 0.1 mm 8 mps 751 mmHg 79%
    15:00 +11°C° 0.1 mm 9 mps 751 mmHg 75%
    16:00 +11°C° 0 mm 8 mps 752 mmHg 75%
    17:00 +10°C° 0 mm 8 mps 752 mmHg 75%
    18:00 +10°C° 0 mm 8 mps 753 mmHg 75%
    19:00 +9°C° 0 mm 7 mps 753 mmHg 77%
    20:00 +8°C° 0 mm 6 mps 754 mmHg 79%
    21:00 +8°C° 0 mm 6 mps 755 mmHg 81%
    22:00 +7°C° 0 mm 6 mps 755 mmHg 81%
    23:00 +7°C° 0 mm 5 mps 755 mmHg 82%

    8 June, Monday

    Time Temperature Precipitation Wind Pressure Humidity
    00:00 +6°C° 0 mm 5 mps 756 mmHg 83%
    01:00 +6°C° 0 mm 5 mps 756 mmHg 84%
    02:00 +5°C° 0 mm 5 mps 756 mmHg 84%
    03:00 +5°C° 0 mm 5 mps 756 mmHg 85%
    04:00 +5°C° 0 mm 5 mps 757 mmHg 83%
    05:00 +6°C° 0 mm 5 mps 757 mmHg 80%
    06:00 +7°C° 0 mm 6 mps 757 mmHg 78%
    07:00 +7°C° 0 mm 6 mps 758 mmHg 74%
    08:00 +8°C° 0 mm 5 mps 758 mmHg 71%
    09:00 +9°C° 0 mm 5 mps 759 mmHg 67%
    10:00 +9°C° 0 mm 5 mps 759 mmHg 66%
    11:00 +9°C° 0 mm 5 mps 759 mmHg 65%
    12:00 +10°C° 0 mm 5 mps 760 mmHg 64%
    13:00 +9°C° 0 mm 5 mps 760 mmHg 65%
    14:00 +9°C° 0 mm 5 mps 760 mmHg 65%
    15:00 +9°C° 0 mm 5 mps 760 mmHg 66%
    16:00 +9°C° 0 mm 5 mps 760 mmHg 67%
    17:00 +9°C° 0 mm 5 mps 760 mmHg 67%
    18:00 +9°C° 0 mm 5 mps 761 mmHg 67%
    19:00 +8°C° 0 mm 4 mps 761 mmHg 71%
    20:00 +7°C° 0 mm 4 mps 761 mmHg 75%
    21:00 +7°C° 0 mm 3 mps 762 mmHg 79%
    22:00 +5°C° 0 mm 3 mps 762 mmHg 82%
    23:00 +5°C° 0 mm 3 mps 762 mmHg 84%

    9 June, Tuesday

    Time Temperature Precipitation Wind Pressure Humidity
    00:00 +4°C° 0 mm 3 mps 762 mmHg 86%
    01:00 +4°C° 0 mm 3 mps 762 mmHg 87%
    02:00 +4°C° 0 mm 3 mps 762 mmHg 88%
    03:00 +3°C° 0 mm 3 mps 762 mmHg 89%
    04:00 +4°C° 0 mm 3 mps 762 mmHg 85%
    05:00 +5°C° 0 mm 3 mps 762 mmHg 82%
    06:00 +7°C° 0 mm 2 mps 763 mmHg 79%
    07:00 +9°C° 0 mm 2 mps 763 mmHg 75%
    08:00 +10°C° 0 mm 2 mps 763 mmHg 70%
    09:00 +12°C° 0 mm 2 mps 763 mmHg 66%
    10:00 +12°C° 0 mm 2 mps 763 mmHg 65%
    11:00 +13°C° 0 mm 2 mps 763 mmHg 64%
    12:00 +13°C° 0 mm 2 mps 763 mmHg 63%
    13:00 +14°C° 0 mm 2 mps 763 mmHg 62%
    14:00 +14°C° 0 mm 1 mps 763 mmHg 62%
    15:00 +15°C° 0 mm 1 mps 762 mmHg 62%
    16:00 +14°C° 0 mm 1 mps 763 mmHg 64%
    17:00 +14°C° 0 mm 1 mps 763 mmHg 66%
    18:00 +14°C° 0 mm 1 mps 763 mmHg 69%
    19:00 +13°C° 0 mm 1 mps 763 mmHg 73%
    20:00 +12°C° 0 mm 1 mps 763 mmHg 78%
    21:00 +10°C° 0 mm 1 mps 763 mmHg 82%
    22:00 +10°C° 0 mm 1 mps 763 mmHg 83%
    23:00 +10°C° 0 mm 1 mps 763 mmHg 85%

    10 June, Wednesday

    Time Temperature Precipitation Wind Pressure Humidity
    00:00 +9°C° 0 mm 2 mps 763 mmHg 86%
    01:00 +8°C° 0 mm 2 mps 763 mmHg 86%
    02:00 +8°C° 0 mm 2 mps 763 mmHg 86%
    03:00 +8°C° 0 mm 2 mps 763 mmHg 87%
    04:00 +9°C° 0 mm 2 mps 763 mmHg 84%
    05:00 +11°C° 0 mm 1 mps 763 mmHg 82%
    06:00 +12°C° 0 mm 1 mps 764 mmHg 80%
    07:00 +13°C° 0 mm 1 mps 764 mmHg 75%
    08:00 +14°C° 0 mm 2 mps 764 mmHg 71%
    09:00 +16°C° 0 mm 2 mps 764 mmHg 66%
    10:00 +16°C° 0 mm 2 mps 764 mmHg 63%
    11:00 +17°C° 0 mm 2 mps 764 mmHg 61%
    12:00 +18°C° 0 mm 2 mps 764 mmHg 58%
    13:00 +18°C° 0 mm 2 mps 764 mmHg 59%
    14:00 +18°C° 0 mm 2 mps 764 mmHg 60%
    15:00 +18°C° 0 mm 2 mps 764 mmHg 61%
    16:00 +18°C° 0 mm 2 mps 764 mmHg 65%
    17:00 +17°C° 0 mm 2 mps 764 mmHg 69%
    18:00 +16°C° 0 mm 2 mps 764 mmHg 73%
    19:00 +15°C° 0 mm 2 mps 764 mmHg 76%
    20:00 +13°C° 0 mm 1 mps 765 mmHg 79%
    21:00 +12°C° 0 mm 1 mps 765 mmHg 82%
    22:00 +12°C° 0 mm 1 mps 765 mmHg 82%
    23:00 +11°C° 0 mm 1 mps 765 mmHg 82%
    Show more